Location: Dodge City Co - Operative Exchange Grain Elevator Number 8
(38.1218°N, 99.7124°W)
Time: 07:59:54
(UTC+00:00)

YAOGAN 6 - Pass Details

Date: 03 March 2021
Orbit: 464 x 503 km, 97.0° (Epoch: 13 April)

Event Time Altitude Azimuth Distance (km) Brightness Sun altitude
Rises 12:14:09 0° 12° (NNE) 2,530 6.4 -11.3°
Reaches altitude 10° 12:16:14 10° 14° (NNE) 1,642 5.4 -10.9°
Maximum altitude 12:19:45 78° 101° (E) 484 2.6 -10.2°
Drops below altitude 10° 12:23:13 10° 188° (S) 1,614 5.1 -9.5°
Sets 12:25:14 0° 190° (S) 2,482 6.1 -9.1°
